TimeEST,TemperatureF,Dew PointF,Humidity,Sea Level PressureIn,VisibilityMPH,Wind Direction,Wind SpeedMPH,Gust SpeedMPH,PrecipitationIn,Events,Conditions,WindDirDegrees,DateUTC
12:53 AM,44.1,39.0,82,29.73,10.0,SSE,10.4,-,0.00,,Overcast,160,2013-11-07 05:53:00
1:25 AM,42.8,39.2,87,29.70,10.0,South,10.4,18.4,0.00,Rain,Light Rain,170,2013-11-07 06:25:00
1:53 AM,43.0,41.0,93,29.70,10.0,SSE,11.5,-,0.01,Rain,Light Rain,160,2013-11-07 06:53:00
2:07 AM,42.8,41.0,93,29.68,10.0,SSE,10.4,-,0.00,Rain,Light Rain,160,2013-11-07 07:07:00
2:28 AM,42.8,41.0,93,29.67,10.0,South,13.8,19.6,0.01,Rain,Light Rain,170,2013-11-07 07:28:00
2:53 AM,43.0,41.0,93,29.67,10.0,South,12.7,-,0.01,Rain,Light Rain,170,2013-11-07 07:53:00
3:53 AM,44.1,42.1,93,29.64,10.0,South,12.7,19.6,0.02,Rain,Light Rain,180,2013-11-07 08:53:00
4:18 AM,44.6,42.8,93,29.62,8.0,South,11.5,19.6,0.00,Rain,Light Rain,180,2013-11-07 09:18:00
4:53 AM,44.1,42.1,93,29.62,4.0,South,10.4,-,0.02,Rain,Light Rain,170,2013-11-07 09:53:00
5:53 AM,44.1,43.0,96,29.60,5.0,South,6.9,-,0.00,,Overcast,170,2013-11-07 10:53:00
6:53 AM,45.0,43.0,93,29.58,7.0,South,9.2,-,N/A,,Overcast,170,2013-11-07 11:53:00
7:17 AM,46.4,44.6,93,29.56,10.0,South,9.2,-,N/A,,Overcast,170,2013-11-07 12:17:00
7:53 AM,46.0,44.1,93,29.55,10.0,South,13.8,20.7,N/A,,Overcast,170,2013-11-07 12:53:00
8:21 AM,46.4,44.6,93,29.53,10.0,South,12.7,-,N/A,,Overcast,170,2013-11-07 13:21:00
8:29 AM,46.4,44.6,93,29.53,9.0,South,10.4,-,N/A,,Overcast,170,2013-11-07 13:29:00
8:53 AM,46.9,45.0,93,29.54,10.0,South,11.5,19.6,N/A,,Overcast,170,2013-11-07 13:53:00
9:53 AM,48.0,46.0,93,29.53,10.0,South,13.8,-,0.00,,Overcast,190,2013-11-07 14:53:00
10:12 AM,48.2,46.4,93,29.52,10.0,South,9.2,-,0.00,,Overcast,180,2013-11-07 15:12:00
10:53 AM,48.9,46.9,93,29.52,3.0,South,12.7,-,0.01,Rain,Light Rain,180,2013-11-07 15:53:00
11:03 AM,48.2,46.4,93,29.51,2.0,South,10.4,18.4,0.00,Rain,Light Rain,180,2013-11-07 16:03:00
11:06 AM,48.2,46.4,93,29.51,1.5,South,11.5,-,0.00,Rain,Light Rain,180,2013-11-07 16:06:00
11:10 AM,48.2,46.4,93,29.51,0.8,South,11.5,-,0.00,Rain,Light Rain,180,2013-11-07 16:10:00
11:53 AM,48.9,48.0,97,29.50,0.2,WSW,10.4,17.3,0.02,Fog-Rain,Light Rain,240,2013-11-07 16:53:00
11:59 AM,48.2,46.4,93,29.50,1.8,SW,12.7,-,0.01,Rain,Light Rain,220,2013-11-07 16:59:00
12:01 PM,48.2,46.4,93,29.50,3.0,SSW,12.7,-,0.01,Rain,Rain,210,2013-11-07 17:01:00
12:09 PM,50.0,46.4,87,29.49,7.0,SW,12.7,-,0.01,Rain,Light Rain,220,2013-11-07 17:09:00
12:14 PM,50.0,46.4,87,29.49,10.0,SW,11.5,-,0.01,Rain,Light Rain,220,2013-11-07 17:14:00
12:53 PM,50.0,44.1,80,29.50,10.0,WSW,9.2,19.6,0.01,Rain,Light Rain,240,2013-11-07 17:53:00
1:17 PM,48.2,44.6,87,29.52,10.0,NNW,17.3,21.9,0.01,,Overcast,330,2013-11-07 18:17:00
1:31 PM,42.8,37.4,81,29.53,10.0,NNW,16.1,20.7,0.01,Rain,Light Rain,340,2013-11-07 18:31:00
1:53 PM,39.9,36.0,86,29.55,10.0,NNW,16.1,21.9,0.03,Rain,Light Rain,340,2013-11-07 18:53:00
2:07 PM,39.2,35.6,87,29.55,10.0,NNW,13.8,23.0,0.01,Rain,Light Rain,330,2013-11-07 19:07:00
2:53 PM,39.9,35.1,83,29.56,10.0,NW,10.4,-,0.01,,Overcast,320,2013-11-07 19:53:00
3:53 PM,39.0,35.1,86,29.58,10.0,NW,4.6,-,N/A,,Mostly Cloudy,310,2013-11-07 20:53:00
4:53 PM,37.9,32.0,79,29.60,10.0,NW,9.2,-,N/A,,Scattered Clouds,320,2013-11-07 21:53:00
5:53 PM,37.0,32.0,82,29.60,10.0,North,12.7,-,N/A,,Overcast,350,2013-11-07 22:53:00
6:53 PM,36.0,28.9,76,29.63,10.0,NNW,17.3,27.6,N/A,,Overcast,330,2013-11-07 23:53:00
7:18 PM,35.6,28.4,75,29.63,10.0,NW,10.4,-,N/A,,Mostly Cloudy,320,2013-11-08 00:18:00
7:53 PM,35.1,26.1,70,29.65,10.0,NW,11.5,-,N/A,,Overcast,310,2013-11-08 00:53:00
8:53 PM,34.0,23.0,64,29.65,10.0,WNW,11.5,-,N/A,,Mostly Cloudy,290,2013-11-08 01:53:00
9:53 PM,34.0,21.0,59,29.64,10.0,NW,9.2,-,N/A,,Overcast,310,2013-11-08 02:53:00
10:53 PM,30.9,21.0,67,29.62,10.0,WNW,5.8,-,N/A,,Clear,300,2013-11-08 03:53:00
11:53 PM,32.0,21.0,64,29.62,10.0,West,6.9,-,N/A,,Overcast,270,2013-11-08 04:53:00